星链-30247 (STARLINK-30247 )

导读

STARLINK-30247是美国SpaceX星链互联网卫星星座中的一员,于2023年8月17日发射升空,归属SpaceX星链项目,星链旨在通过近地轨道卫星星座提供全球范围高速互联网接入服务,该卫星入轨后参与星座组网,服务地面用户的通信与互联网接入需求,目前已在轨运行约两年半。

基本信息
目录编号:
57644
目录名称:
STARLINK-30247
国际标识:
2023-122N
轨道中心:
EARTH
卫星名称:
星链-30247
卫星全名:
星链-30247 (STARLINK-30247 )
卫星状态:
在轨 (已飞行1036 天)
发射日期:
2023-08-17 UTC
国别 :
美国 (US)
星等 :
--
轨道信息
数据来源 国际轨道数据
星历时间: 2026-06-18T13:09:30+0800
8小时前
查看轨道信息
半长轴: 6861.182km
偏心率: 0.00024
轨道倾角: 42.999°
近地点辐角 282.614°
升交点赤经 244.570°
平近点角 77.445°
近地点: 481.398km
远地点: 484.692km
周期: 94.267分钟
每日圈数: 15.275816
详细信息
固有亮度:
5
最大亮度:
0.3
卫星平台:
Starlink v2.0 mini
覆盖范围:
全球
运营商:
太空探索技术公司
运营商所在国:
美国
制造商(研发单位):
太空探索技术公司
制造商所在国:
美国
使用方式:
暂无
卫星简介
星链(Starlink)计划是由太空探索技术公司(SpaceX)提出的一个巨型低轨卫星互联网星座项目,计划在2019年至2024年间在太空搭建由约1.2万颗卫星组成的“星链”网络,其中1584颗将部署在地球上空550千米处的近地轨道,并从2020年开始工作。该卫星仍在工作。
2D轨道图
3D轨道图
轨道高度分析图
轨道倾角分析图
轨道综合分析图
查看轨道综合分析图